Weather History for KCOE - March, 2014

Change the Weather History Date:

Saturday, March 29, 2014

  Actual Average Record
Temperature  
Mean Temperature 48 °F -  
Max Temperature 53 °F 48 °F 66 °F (2004)
Min Temperature 41 °F 30 °F 26 °F (2008)
Degree Days  
Heating Degree Days 18    
Moisture  
Dew Point 36 °F    
Average Humidity 69    
Maximum Humidity 87    
Minimum Humidity 47    
Precipitation  
Precipitation 0.01 in - - ()
Sea Level Pressure  
Sea Level Pressure 29.76 in    
Wind  
Wind Speed 12 mph (SSW)    
Max Wind Speed 22 mph    
Max Gust Speed 28 mph    
Visibility 10 miles    
Events      
Averages and records for this station are not official NWS values.
T = Trace of Precipitation, MM = Missing Value Source: NWS Daily Summary

Daily Weather History Graph

Daily Weather History Graph

Search for Another Location

Airport or City:

Trip Planner

Search our weather history database for the weather conditions in past years. The results will help you decide how hot, cold, wet, or windy it might be!

Date:

Astronomy

Mar. 29, 2014 Rise Set
Actual Time 6:31 AM PDT 7:13 PM PDT
Civil Twilight 6:00 AM PDT 7:44 PM PDT
Nautical Twilight 5:23 AM PDT 8:21 PM PDT
Astronomical Twilight 4:44 AM PDT 9:00 PM PDT
Moon 5:47 AM PDT (3/29) 6:21 PM PDT (3/29)
Length of Visible Light 13h 43m
Length of Day
12h 41m
Waning Crescent, 1% of the Moon is Illuminated
Mar 29
Waning Crescent
Mar 30
New
Apr 7
First Quarter
Apr 15
Full
Apr 22
Last Quarter

Hourly Weather History & Observations

Time (PDT) Temp. Windchill Dew Point Humidity Pressure Visibility Wind Dir Wind Speed Gust Speed Precip Events Conditions
12:15 AM 42.8 °F 36.2 °F 39.2 °F 87% 29.76 in 10.0 mi SSE 12.7 mph - N/A   Overcast
12:35 AM 42.8 °F 36.6 °F 39.2 °F 87% 29.76 in 10.0 mi South 11.5 mph - N/A   Overcast
12:55 AM 42.8 °F 36.2 °F 39.2 °F 87% 29.75 in 10.0 mi South 12.7 mph - N/A   Overcast
1:15 AM 42.8 °F 36.6 °F 39.2 °F 87% 29.75 in 10.0 mi South 11.5 mph - N/A   Mostly Cloudy
1:35 AM 44.6 °F 38.1 °F 39.2 °F 81% 29.75 in 10.0 mi South 13.8 mph 17.3 mph N/A   Overcast
1:55 AM 42.8 °F 36.2 °F 39.2 °F 87% 29.75 in 10.0 mi South 12.7 mph 19.6 mph N/A   Overcast
2:15 AM 42.8 °F 37.5 °F 39.2 °F 87% 29.75 in 10.0 mi SSE 9.2 mph - 0.01 in   Overcast
2:35 AM 42.8 °F 37.5 °F 39.2 °F 87% 29.74 in 10.0 mi SSE 9.2 mph - 0.01 in   Overcast
2:55 AM 42.8 °F 37.5 °F 39.2 °F 87% 29.74 in 10.0 mi SSE 9.2 mph - 0.01 in   Overcast
3:15 AM 42.8 °F 36.6 °F 39.2 °F 87% 29.74 in 10.0 mi South 11.5 mph - N/A   Overcast
3:35 AM 42.8 °F 37.5 °F 39.2 °F 87% 29.73 in 10.0 mi South 9.2 mph - N/A   Overcast
3:55 AM 42.8 °F 38.0 °F 39.2 °F 87% 29.73 in 10.0 mi South 8.1 mph - N/A   Overcast
4:15 AM 42.8 °F 39.3 °F 39.2 °F 87% 29.73 in 10.0 mi South 5.8 mph - N/A   Overcast
4:35 AM 42.8 °F 38.6 °F 39.2 °F 87% 29.72 in 10.0 mi SSE 6.9 mph - N/A   Overcast
4:55 AM 42.8 °F 37.5 °F 37.4 °F 81% 29.72 in 10.0 mi South 9.2 mph - N/A   Overcast
5:15 AM 42.8 °F 38.6 °F 37.4 °F 81% 29.73 in 10.0 mi South 6.9 mph - N/A   Overcast
5:35 AM 42.8 °F 38.6 °F 37.4 °F 81% 29.73 in 10.0 mi South 6.9 mph - N/A   Overcast
5:55 AM 42.8 °F 38.0 °F 37.4 °F 81% 29.74 in 10.0 mi South 8.1 mph - N/A   Overcast
6:15 AM 42.8 °F 40.1 °F 39.2 °F 87% 29.74 in 10.0 mi SSW 4.6 mph - N/A   Overcast
6:35 AM 42.8 °F - 39.2 °F 87% 29.74 in 10.0 mi Calm Calm - N/A   Overcast
6:55 AM 42.8 °F 40.1 °F 37.4 °F 81% 29.75 in 10.0 mi SSW 4.6 mph - N/A   Overcast
7:15 AM 42.8 °F 38.6 °F 39.2 °F 87% 29.76 in 10.0 mi SSW 6.9 mph - N/A   Overcast
7:35 AM 44.6 °F 39.2 °F 37.4 °F 76% 29.77 in 10.0 mi WSW 10.4 mph - N/A   Overcast
7:55 AM 44.6 °F 37.4 °F 37.4 °F 76% 29.77 in 10.0 mi WSW 16.1 mph - N/A   Overcast
8:15 AM 44.6 °F 38.1 °F 37.4 °F 76% 29.78 in 10.0 mi WSW 13.8 mph 21.9 mph N/A   Overcast
8:35 AM 44.6 °F 39.2 °F 37.4 °F 76% 29.78 in 10.0 mi WSW 10.4 mph - N/A   Overcast
8:55 AM 44.6 °F 41.4 °F 37.4 °F 76% 29.78 in 10.0 mi WSW 5.8 mph - N/A   Overcast
9:15 AM 44.6 °F 39.2 °F 37.4 °F 76% 29.79 in 10.0 mi WSW 10.4 mph - N/A   Overcast
9:35 AM 44.6 °F 39.2 °F 37.4 °F 76% 29.79 in 10.0 mi SW 10.4 mph 16.1 mph N/A   Overcast
9:55 AM 46.4 °F 40.1 °F 37.4 °F 71% 29.79 in 10.0 mi WSW 15.0 mph - N/A   Overcast
10:15 AM 46.4 °F 40.4 °F 37.4 °F 71% 29.79 in 10.0 mi West 13.8 mph - N/A   Overcast
10:35 AM 46.4 °F 40.7 °F 37.4 °F 71% 29.79 in 10.0 mi WSW 12.7 mph - N/A   Overcast
10:55 AM 46.4 °F 41.5 °F 37.4 °F 71% 29.79 in 10.0 mi WSW 10.4 mph - N/A   Overcast
11:15 AM 46.4 °F 40.7 °F 37.4 °F 71% 29.79 in 10.0 mi SW 12.7 mph 18.4 mph N/A   Mostly Cloudy
11:35 AM 50.0 °F - 37.4 °F 62% 29.79 in 10.0 mi SSW 13.8 mph - N/A   Mostly Cloudy
11:55 AM 51.8 °F - 37.4 °F 58% 29.79 in 10.0 mi SW 15.0 mph 26.5 mph N/A   Mostly Cloudy
12:15 PM 50.0 °F - 35.6 °F 58% 29.79 in 10.0 mi WSW 17.3 mph 21.9 mph N/A   Mostly Cloudy
12:35 PM 51.8 °F - 37.4 °F 58% 29.79 in 10.0 mi WSW 17.3 mph 27.6 mph N/A   Overcast
12:55 PM 51.8 °F - 35.6 °F 54% 29.78 in 10.0 mi SSW 15.0 mph 24.2 mph N/A   Mostly Cloudy
1:15 PM 50.0 °F - 35.6 °F 58% 29.78 in 10.0 mi SW 18.4 mph 25.3 mph N/A   Overcast
1:35 PM 51.8 °F - 35.6 °F 54% 29.78 in 10.0 mi SW 17.3 mph 24.2 mph N/A   Overcast
1:55 PM 51.8 °F - 35.6 °F 54% 29.77 in 10.0 mi SSW 12.7 mph 18.4 mph N/A   Mostly Cloudy
2:15 PM 53.6 °F - 35.6 °F 51% 29.77 in 10.0 mi SW 13.8 mph 27.6 mph N/A   Mostly Cloudy
2:35 PM 51.8 °F - 35.6 °F 54% 29.76 in 10.0 mi SW 20.7 mph - N/A   Overcast
2:55 PM 53.6 °F - 35.6 °F 51% 29.76 in 10.0 mi SW 20.7 mph 26.5 mph N/A   Overcast
3:15 PM 53.6 °F - 35.6 °F 51% 29.75 in 10.0 mi WSW 21.9 mph 27.6 mph N/A   Mostly Cloudy
3:35 PM 53.6 °F - 33.8 °F 47% 29.75 in 10.0 mi WSW 17.3 mph - N/A   Mostly Cloudy
3:55 PM 53.6 °F - 33.8 °F 47% 29.75 in 10.0 mi WSW 16.1 mph 24.2 mph N/A   Mostly Cloudy
4:15 PM 53.6 °F - 35.6 °F 51% 29.74 in 10.0 mi WSW 16.1 mph 21.9 mph N/A   Mostly Cloudy
4:35 PM 53.6 °F - 35.6 °F 51% 29.74 in 10.0 mi WSW 18.4 mph 24.2 mph N/A   Mostly Cloudy
4:55 PM 53.6 °F - 35.6 °F 51% 29.74 in 10.0 mi SSW 17.3 mph - N/A   Mostly Cloudy
5:15 PM 51.8 °F - 33.8 °F 50% 29.73 in 10.0 mi SW 10.4 mph 19.6 mph N/A   Mostly Cloudy
5:35 PM 51.8 °F - 33.8 °F 50% 29.73 in 10.0 mi SW 13.8 mph 19.6 mph N/A   Overcast
5:55 PM 51.8 °F - 33.8 °F 50% 29.72 in 10.0 mi SW 13.8 mph - N/A   Overcast
6:15 PM 51.8 °F - 33.8 °F 50% 29.72 in 10.0 mi SSW 13.8 mph 17.3 mph N/A   Overcast
6:35 PM 50.0 °F - 32.0 °F 50% 29.72 in 10.0 mi SSW 16.1 mph - N/A   Overcast
6:55 PM 48.2 °F - 32.0 °F 54% 29.72 in 10.0 mi SSW 12.7 mph - N/A   Mostly Cloudy
7:15 PM 46.4 °F 41.1 °F 32.0 °F 57% 29.72 in 10.0 mi South 11.5 mph - N/A   Scattered Clouds
7:35 PM 48.2 °F - 32.0 °F 54% 29.73 in 10.0 mi South 9.2 mph - N/A   Mostly Cloudy
7:55 PM 42.8 °F 36.6 °F 32.0 °F 66% 29.75 in 8.0 mi SSW 11.5 mph - N/A   Mostly Cloudy
8:15 PM 42.8 °F 38.0 °F 33.8 °F 70% 29.75 in 10.0 mi South 8.1 mph - N/A   Partly Cloudy
8:35 PM 42.8 °F 37.5 °F 33.8 °F 70% 29.75 in 10.0 mi SSE 9.2 mph - N/A   Clear
8:55 PM 42.8 °F 36.2 °F 33.8 °F 70% 29.75 in 10.0 mi South 12.7 mph - N/A   Clear
9:15 PM 42.8 °F 35.4 °F 33.8 °F 70% 29.76 in 10.0 mi South 15.0 mph - N/A   Scattered Clouds
9:35 PM 42.8 °F 35.8 °F 35.6 °F 76% 29.77 in 10.0 mi South 13.8 mph 19.6 mph N/A   Overcast
9:55 PM 44.6 °F 37.4 °F 33.8 °F 66% 29.77 in 10.0 mi South 16.1 mph - N/A   Overcast
10:15 PM 44.6 °F 38.4 °F 35.6 °F 71% 29.78 in 10.0 mi South 12.7 mph - N/A   Overcast
10:35 PM 42.8 °F 36.2 °F 33.8 °F 70% 29.78 in 10.0 mi South 12.7 mph - N/A   Overcast
10:55 PM 42.8 °F 36.2 °F 33.8 °F 70% 29.78 in 10.0 mi SW 12.7 mph - N/A   Overcast
11:15 PM 42.8 °F 35.8 °F 32.0 °F 66% 29.77 in 10.0 mi SSW 13.8 mph - N/A   Scattered Clouds
11:35 PM 42.8 °F 36.2 °F 33.8 °F 70% 29.78 in 10.0 mi SSW 12.7 mph - N/A   Clear
11:55 PM 41.0 °F 34.3 °F 33.8 °F 76% 29.79 in 10.0 mi South 11.5 mph - N/A   Scattered Clouds